When you browse on this site, cookies collect data to enhance your experience and personalize the content and advertising you see.
Visit our Privacy Policy to learn more. By continuing to use the site, you agree to this use of cookies and data.

Hourly Weather Praha

Today, 25 September, Friday

Time Temperature Precipitation Wind Pressure Humidity
00:00 +16°C° 0 mm 2 mps 732 mmHg 82%
01:00 +16°C° 0 mm 3 mps 731 mmHg 84%
02:00 +16°C° 0 mm 3 mps 731 mmHg 83%
03:00 +16°C° 0 mm 3 mps 730 mmHg 82%
04:00 +16°C° 0 mm 3 mps 729 mmHg 81%
05:00 +16°C° 0.3 mm 3 mps 729 mmHg 83%
06:00 +15°C° 0.3 mm 4 mps 729 mmHg 85%
07:00 +14°C° 0.3 mm 5 mps 728 mmHg 88%
08:00 +15°C° 0.8 mm 5 mps 729 mmHg 85%
09:00 +15°C° 0.8 mm 5 mps 729 mmHg 82%
10:00 +17°C° 0.8 mm 4 mps 729 mmHg 79%
11:00 +16°C° 0.4 mm 5 mps 729 mmHg 76%
12:00 +16°C° 0.4 mm 6 mps 730 mmHg 72%
13:00 +16°C° 0.4 mm 6 mps 730 mmHg 69%
14:00 +15°C° 0.1 mm 6 mps 730 mmHg 70%
15:00 +14°C° 0.1 mm 6 mps 730 mmHg 71%
16:00 +12°C° 0.1 mm 5 mps 730 mmHg 73%
17:00 +10°C° 0.5 mm 5 mps 730 mmHg 76%
18:00 +10°C° 0.5 mm 5 mps 730 mmHg 79%
19:00 +10°C° 0.5 mm 4 mps 730 mmHg 82%
20:00 +8°C° 0.8 mm 4 mps 730 mmHg 83%
21:00 +8°C° 0.8 mm 4 mps 730 mmHg 83%
22:00 +8°C° 0.8 mm 4 mps 729 mmHg 84%
23:00 +8°C° 0.8 mm 4 mps 729 mmHg 86%

Tomorrow, 26 September, Saturday

Time Temperature Precipitation Wind Pressure Humidity
00:00 +8°C° 0.8 mm 4 mps 729 mmHg 87%
01:00 +8°C° 0.8 mm 4 mps 728 mmHg 88%
02:00 +8°C° 2.9 mm 4 mps 727 mmHg 90%
03:00 +8°C° 2.9 mm 5 mps 727 mmHg 91%
04:00 +7°C° 2.9 mm 6 mps 726 mmHg 92%
05:00 +6°C° 4.8 mm 7 mps 726 mmHg 92%
06:00 +6°C° 4.8 mm 8 mps 725 mmHg 92%
07:00 +6°C° 4.8 mm 8 mps 725 mmHg 91%
08:00 +5°C° 3.7 mm 8 mps 725 mmHg 92%
09:00 +5°C° 3.7 mm 7 mps 725 mmHg 92%
10:00 +5°C° 3.7 mm 7 mps 725 mmHg 92%
11:00 +5°C° 2.4 mm 7 mps 726 mmHg 91%
12:00 +5°C° 2.4 mm 7 mps 726 mmHg 90%
13:00 +5°C° 2.4 mm 6 mps 726 mmHg 89%
14:00 +5°C° 0.2 mm 6 mps 727 mmHg 88%
15:00 +6°C° 0.2 mm 5 mps 727 mmHg 87%
16:00 +7°C° 0.2 mm 5 mps 728 mmHg 86%
17:00 +7°C° 0 mm 5 mps 728 mmHg 86%
18:00 +7°C° 0 mm 4 mps 728 mmHg 86%
19:00 +7°C° 0 mm 4 mps 729 mmHg 86%
20:00 +7°C° 0 mm 4 mps 729 mmHg 86%
21:00 +6°C° 0 mm 4 mps 729 mmHg 87%
22:00 +6°C° 0 mm 4 mps 730 mmHg 87%
23:00 +6°C° 0 mm 4 mps 730 mmHg 87%

Day after tomorrow, 27 September, Sunday

Time Temperature Precipitation Wind Pressure Humidity
00:00 +6°C° 0 mm 4 mps 730 mmHg 87%
01:00 +6°C° 0 mm 4 mps 730 mmHg 87%
02:00 +6°C° 0 mm 4 mps 730 mmHg 87%
03:00 +7°C° 0 mm 3 mps 730 mmHg 86%
04:00 +7°C° 0 mm 3 mps 730 mmHg 86%
05:00 +8°C° 0 mm 3 mps 730 mmHg 85%
06:00 +8°C° 0 mm 3 mps 731 mmHg 84%
07:00 +8°C° 0 mm 3 mps 731 mmHg 83%
08:00 +8°C° 0 mm 4 mps 731 mmHg 79%
09:00 +10°C° 0 mm 4 mps 731 mmHg 75%
10:00 +10°C° 0 mm 5 mps 732 mmHg 71%
11:00 +10°C° 0 mm 5 mps 732 mmHg 70%
12:00 +12°C° 0 mm 5 mps 732 mmHg 69%
13:00 +12°C° 0 mm 5 mps 732 mmHg 68%
14:00 +12°C° 0 mm 5 mps 732 mmHg 69%
15:00 +12°C° 0 mm 5 mps 733 mmHg 69%
16:00 +12°C° 0 mm 5 mps 733 mmHg 70%
17:00 +10°C° 0 mm 5 mps 733 mmHg 72%
18:00 +10°C° 0 mm 4 mps 734 mmHg 74%
19:00 +10°C° 0 mm 4 mps 734 mmHg 76%
20:00 +10°C° 0 mm 4 mps 734 mmHg 77%
21:00 +10°C° 0 mm 4 mps 734 mmHg 78%
22:00 +10°C° 0 mm 4 mps 735 mmHg 79%
23:00 +10°C° 0 mm 4 mps 735 mmHg 78%

28 September, Monday

Time Temperature Precipitation Wind Pressure Humidity
00:00 +8°C° 0 mm 4 mps 735 mmHg 78%
01:00 +8°C° 0 mm 4 mps 735 mmHg 78%
02:00 +8°C° 0 mm 5 mps 735 mmHg 77%
03:00 +8°C° 0 mm 5 mps 735 mmHg 76%
04:00 +9°C° 0 mm 5 mps 735 mmHg 76%
05:00 +9°C° 0 mm 5 mps 735 mmHg 77%
06:00 +9°C° 0 mm 5 mps 735 mmHg 78%
07:00 +9°C° 0 mm 5 mps 735 mmHg 79%
08:00 +9°C° 0.3 mm 5 mps 735 mmHg 81%
09:00 +9°C° 0.3 mm 5 mps 735 mmHg 83%
10:00 +9°C° 0.3 mm 5 mps 735 mmHg 84%
11:00 +9°C° 1 mm 5 mps 735 mmHg 86%
12:00 +9°C° 1 mm 6 mps 735 mmHg 88%
13:00 +9°C° 1 mm 6 mps 735 mmHg 89%
14:00 +9°C° 1.2 mm 6 mps 735 mmHg 89%
15:00 +9°C° 1.2 mm 6 mps 735 mmHg 89%
16:00 +10°C° 1.2 mm 6 mps 734 mmHg 89%
17:00 +10°C° 0.4 mm 6 mps 735 mmHg 89%
18:00 +10°C° 0.4 mm 6 mps 735 mmHg 90%
19:00 +10°C° 0.4 mm 6 mps 735 mmHg 90%
20:00 +11°C° 1.5 mm 6 mps 735 mmHg 91%
21:00 +12°C° 1.5 mm 5 mps 735 mmHg 92%
22:00 +12°C° 1.5 mm 5 mps 735 mmHg 94%
23:00 +13°C° 2.4 mm 5 mps 735 mmHg 93%

29 September, Tuesday

Time Temperature Precipitation Wind Pressure Humidity
00:00 +13°C° 2.4 mm 5 mps 735 mmHg 93%
01:00 +13°C° 2.4 mm 4 mps 735 mmHg 92%
02:00 +13°C° 0.4 mm 5 mps 735 mmHg 90%
03:00 +12°C° 0.4 mm 5 mps 736 mmHg 87%
04:00 +10°C° 0.4 mm 5 mps 736 mmHg 84%
05:00 +10°C° 0 mm 5 mps 737 mmHg 85%
06:00 +9°C° 0 mm 5 mps 738 mmHg 85%
07:00 +9°C° 0 mm 5 mps 738 mmHg 85%
08:00 +10°C° 0 mm 5 mps 739 mmHg 81%
09:00 +12°C° 0 mm 5 mps 740 mmHg 77%
10:00 +13°C° 0 mm 5 mps 740 mmHg 72%
11:00 +14°C° 0 mm 5 mps 741 mmHg 70%
12:00 +14°C° 0 mm 5 mps 741 mmHg 67%
13:00 +15°C° 0 mm 5 mps 742 mmHg 64%
14:00 +15°C° 0 mm 4 mps 742 mmHg 65%
15:00 +15°C° 0 mm 4 mps 742 mmHg 65%
16:00 +14°C° 0 mm 3 mps 742 mmHg 66%
17:00 +13°C° 0 mm 3 mps 742 mmHg 71%
18:00 +13°C° 0 mm 2 mps 743 mmHg 77%
19:00 +11°C° 0 mm 1 mps 743 mmHg 83%
20:00 +11°C° 0 mm 1 mps 743 mmHg 84%
21:00 +11°C° 0 mm 1 mps 743 mmHg 85%
22:00 +10°C° 0 mm 1 mps 743 mmHg 86%
23:00 +10°C° 0 mm 1 mps 743 mmHg 87%

30 September, Wednesday

Time Temperature Precipitation Wind Pressure Humidity
00:00 +10°C° 0 mm 1 mps 743 mmHg 88%
01:00 +10°C° 0 mm 1 mps 743 mmHg 89%
02:00 +9°C° 0 mm 1 mps 742 mmHg 89%
03:00 +9°C° 0 mm 1 mps 742 mmHg 90%
04:00 +9°C° 0 mm 1 mps 742 mmHg 91%
05:00 +9°C° 0 mm 1 mps 742 mmHg 91%
06:00 +9°C° 0 mm 0 mps 742 mmHg 91%
07:00 +9°C° 0 mm 0 mps 741 mmHg 91%
08:00 +12°C° 0 mm 1 mps 741 mmHg 86%
09:00 +13°C° 0 mm 1 mps 741 mmHg 80%
10:00 +15°C° 0 mm 1 mps 741 mmHg 74%
11:00 +16°C° 0 mm 1 mps 740 mmHg 70%
12:00 +17°C° 0 mm 2 mps 740 mmHg 65%
13:00 +18°C° 0 mm 2 mps 739 mmHg 60%
14:00 +18°C° 0 mm 2 mps 739 mmHg 62%
15:00 +18°C° 0 mm 2 mps 739 mmHg 63%
16:00 +18°C° 0 mm 2 mps 738 mmHg 64%
17:00 +16°C° 0 mm 1 mps 738 mmHg 70%
18:00 +15°C° 0 mm 1 mps 738 mmHg 76%
19:00 +13°C° 0 mm 1 mps 738 mmHg 82%
20:00 +13°C° 0 mm 1 mps 738 mmHg 84%
21:00 +13°C° 0 mm 1 mps 738 mmHg 86%
22:00 +12°C° 0 mm 1 mps 738 mmHg 88%
23:00 +12°C° 0 mm 1 mps 738 mmHg 89%
Show more